Aurora, NE

2:52 PM CDT on July 21, 2017 (GMT -0500)
Aurora Municipal

Weather History for KAUH - December, 2012

Change the Weather History Date:

Tuesday, December 4, 2012

  Actual Average Record
Temperature  
Mean Temperature 42 °F -  
Max Temperature 60 °F 40 °F 68 °F (1965)
Min Temperature 25 °F 19 °F 1 °F (2005)
Degree Days  
Heating Degree Days 22    
Moisture  
Dew Point 14 °F    
Average Humidity 39    
Maximum Humidity 66    
Minimum Humidity 12    
Precipitation  
Precipitation 0.00 in - - ()
Sea Level Pressure  
Sea Level Pressure 30.22 in    
Wind  
Wind Speed 6 mph (West)    
Max Wind Speed 13 mph    
Max Gust Speed -    
Visibility 10 miles    
Events      
Averages and records for this station are not official NWS values.
T = Trace of Precipitation, MM = Missing Value Source: NWS Daily Summary

Daily Weather History Graph

Daily Weather History Graph

Search for Another Location

Airport or City:

Trip Planner

Search our weather history database for the weather conditions in past years. The results will help you decide how hot, cold, wet, or windy it might be!

Date:

Astronomy

Dec. 04, 2012 Rise Set
Actual Time 7:40 AM CST 5:04 PM CST
Civil Twilight 7:09 AM CST 5:34 PM CST
Nautical Twilight 6:35 AM CST 6:08 PM CST
Astronomical Twilight 6:02 AM CST 6:42 PM CST
Moon 10:54 PM CST (12/4) 11:34 AM CST (12/4)
Length of Visible Light 10h 24m
Length of Day
9h 23m
Waning Gibbous, 69% of the Moon is Illuminated
Dec 4
Waning Gibbous
Dec 6
Last Quarter
Dec 13
New
Dec 19
First Quarter
Dec 28
Full

Hourly Weather History & Observations

Time (CST) Temp. Windchill Dew Point Humidity Pressure Visibility Wind Dir Wind Speed Gust Speed Precip Events Conditions
12:15 AM 32.7 °F 29.6 °F 15.8 °F 50% 30.13 in 10.0 mi WSW 3.5 mph - N/A   Clear
12:35 AM 31.5 °F 25.8 °F 16.0 °F 53% 30.13 in 10.0 mi West 5.8 mph - N/A   Clear
12:55 AM 30.6 °F 23.8 °F 15.3 °F 53% 30.13 in 10.0 mi West 6.9 mph - N/A   Clear
1:15 AM 27.7 °F 21.3 °F 15.3 °F 60% 30.13 in 10.0 mi West 5.8 mph - N/A   Clear
1:35 AM 30.0 °F 25.2 °F 15.8 °F 56% 30.13 in 10.0 mi West 4.6 mph - N/A   Clear
1:55 AM 28.4 °F 21.2 °F 15.6 °F 59% 30.14 in 10.0 mi West 6.9 mph - N/A   Clear
2:15 AM 29.3 °F 24.3 °F 15.6 °F 57% 30.15 in 10.0 mi West 4.6 mph - N/A   Clear
2:55 AM 28.0 °F 21.7 °F 15.4 °F 59% 30.17 in 10.0 mi West 5.8 mph - N/A   Clear
3:15 AM 28.4 °F 22.2 °F 15.6 °F 59% 30.17 in 10.0 mi West 5.8 mph - N/A   Clear
3:35 AM 28.0 °F - 15.8 °F 60% 30.17 in 10.0 mi Calm Calm - N/A   Clear
3:55 AM 27.3 °F 20.9 °F 15.6 °F 61% 30.17 in 10.0 mi West 5.8 mph - N/A   Clear
4:15 AM 27.9 °F 20.6 °F 15.6 °F 60% 30.17 in 10.0 mi West 6.9 mph - N/A   Clear
4:35 AM 26.6 °F - 15.4 °F 63% 30.18 in 10.0 mi Calm Calm - N/A   Clear
4:55 AM 27.0 °F 18.0 °F 15.3 °F 61% 30.18 in 10.0 mi West 9.2 mph - N/A   Clear
5:15 AM 25.9 °F 18.2 °F 15.8 °F 66% 30.18 in 10.0 mi WSW 6.9 mph - N/A   Clear
5:35 AM 26.6 °F 18.2 °F 15.6 °F 63% 30.18 in 10.0 mi WSW 8.1 mph - N/A   Clear
5:55 AM 27.9 °F 19.1 °F 16.3 °F 62% 30.19 in 10.0 mi WSW 9.2 mph - N/A   Clear
6:15 AM 26.8 °F 19.3 °F 15.8 °F 63% 30.19 in 10.0 mi West 6.9 mph - N/A   Clear
6:35 AM 30.0 °F 22.4 °F 16.3 °F 57% 30.21 in 10.0 mi West 8.1 mph - N/A   Clear
6:55 AM 27.9 °F 21.5 °F 15.4 °F 60% 30.22 in 10.0 mi WSW 5.8 mph - N/A   Clear
7:15 AM 27.5 °F 19.3 °F 15.1 °F 60% 30.23 in 10.0 mi West 8.1 mph - N/A   Clear
7:35 AM 26.4 °F 18.0 °F 14.7 °F 61% 30.23 in 10.0 mi West 8.1 mph - N/A   Clear
7:55 AM 25.5 °F 16.2 °F 14.7 °F 64% 30.24 in 10.0 mi West 9.2 mph - N/A   Clear
8:15 AM 26.8 °F 18.5 °F 16.3 °F 65% 30.24 in 10.0 mi West 8.1 mph - N/A   Clear
8:35 AM 29.8 °F 22.2 °F 17.8 °F 61% 30.25 in 10.0 mi West 8.1 mph - N/A   Clear
8:55 AM 33.8 °F 26.4 °F 19.2 °F 55% 30.26 in 10.0 mi WNW 9.2 mph - N/A   Clear
9:15 AM 36.0 °F 27.5 °F 19.0 °F 50% 30.26 in 10.0 mi WNW 12.7 mph - N/A   Clear
9:35 AM 38.3 °F 31.4 °F 19.4 °F 47% 30.26 in 10.0 mi NW 10.4 mph - N/A   Clear
9:55 AM 40.3 °F 34.4 °F 19.8 °F 44% 30.27 in 10.0 mi NW 9.2 mph - N/A   Clear
10:15 AM 42.4 °F 37.0 °F 20.1 °F 41% 30.28 in 10.0 mi NW 9.2 mph - N/A   Clear
10:35 AM 44.8 °F 40.4 °F 20.3 °F 38% 30.28 in 10.0 mi NW 8.1 mph - N/A   Clear
10:55 AM 47.8 °F - 19.6 °F 33% 30.29 in 10.0 mi NW 5.8 mph - N/A   Clear
11:15 AM 50.5 °F - 17.6 °F 27% 30.28 in 10.0 mi NNW 5.8 mph - N/A   Clear
11:35 AM 52.2 °F - 16.5 °F 24% 30.27 in 10.0 mi NNW 8.1 mph - N/A   Clear
11:55 AM 53.6 °F - 16.0 °F 23% 30.26 in 10.0 mi NW 8.1 mph - N/A   Clear
12:15 PM 55.6 °F - 15.3 °F 20% 30.26 in 10.0 mi North 6.9 mph - N/A   Clear
12:35 PM 57.2 °F - 14.2 °F 18% 30.25 in 10.0 mi NNW 4.6 mph - N/A   Clear
12:55 PM 58.6 °F - 12.2 °F 16% 30.25 in 10.0 mi North 8.1 mph - N/A   Clear
1:15 PM 59.0 °F - 12.0 °F 16% 30.25 in 10.0 mi NNW 9.2 mph - N/A   Clear
1:35 PM 59.9 °F - 11.7 °F 15% 30.25 in 10.0 mi NW 4.6 mph - N/A   Clear
1:55 PM 60.1 °F - 10.4 °F 14% 30.24 in 10.0 mi NW 5.8 mph - N/A   Clear
2:15 PM 60.1 °F - 9.7 °F 14% 30.24 in 10.0 mi NW 6.9 mph - N/A   Clear
2:35 PM 60.1 °F - 7.9 °F 13% 30.22 in 10.0 mi West 6.9 mph - N/A   Clear
2:55 PM 60.1 °F - 5.9 °F 12% 30.22 in 10.0 mi Calm Calm - N/A   Clear
3:15 PM 60.1 °F - 7.2 °F 12% 30.22 in 10.0 mi NNW 3.5 mph - N/A   Clear
3:35 PM 59.9 °F - 7.3 °F 12% 30.23 in 10.0 mi West 3.5 mph - N/A   Clear
3:55 PM 59.7 °F - 7.9 °F 13% 30.23 in 10.0 mi Calm Calm - N/A   Clear
4:15 PM 58.6 °F - 8.4 °F 14% 30.23 in 10.0 mi SW 3.5 mph - N/A   Clear
4:35 PM 55.6 °F - 9.7 °F 16% 30.24 in 10.0 mi WSW 3.5 mph - N/A   Clear
4:55 PM 55.0 °F - 9.0 °F 16% 30.24 in 10.0 mi Calm Calm - N/A   Clear
5:15 PM 52.0 °F - 10.2 °F 19% 30.24 in 10.0 mi SSW 3.5 mph - N/A   Clear
5:35 PM 52.7 °F - 9.1 °F 17% 30.24 in 10.0 mi SSW 3.5 mph - N/A   Clear
5:55 PM 48.9 °F - 10.8 °F 22% 30.24 in 10.0 mi Calm Calm - N/A   Clear
6:15 PM 48.6 °F - 11.3 °F 22% 30.24 in 10.0 mi SSW 4.6 mph - N/A   Clear
6:35 PM 48.0 °F - 11.7 °F 23% 30.24 in 10.0 mi South 3.5 mph - N/A   Clear
6:55 PM 43.7 °F 42.1 °F 12.4 °F 28% 30.24 in 10.0 mi SSW 3.5 mph - N/A   Clear
7:15 PM 41.7 °F 39.8 °F 13.3 °F 32% 30.24 in 10.0 mi South 3.5 mph - N/A   Clear
7:35 PM 43.2 °F 41.5 °F 13.3 °F 30% 30.24 in 10.0 mi South 3.5 mph - N/A   Clear
7:55 PM 43.7 °F 41.1 °F 12.7 °F 29% 30.24 in 10.0 mi SSE 4.6 mph - N/A   Clear
8:15 PM 37.0 °F 32.4 °F 12.6 °F 37% 30.25 in 10.0 mi SSW 5.8 mph - N/A   Clear
8:35 PM 39.2 °F 37.0 °F 13.5 °F 35% 30.25 in 10.0 mi South 3.5 mph - N/A   Clear
8:55 PM 37.9 °F 34.4 °F 13.8 °F 37% 30.25 in 10.0 mi SSE 4.6 mph - N/A   Clear
9:15 PM 42.8 °F 38.6 °F 14.0 °F 31% 30.24 in 10.0 mi South 6.9 mph - N/A   Clear
9:35 PM 42.3 °F 38.6 °F 15.1 °F 33% 30.24 in 10.0 mi South 5.8 mph - N/A   Clear
9:55 PM 40.8 °F - 15.6 °F 36% 30.25 in 10.0 mi Calm Calm - N/A   Clear
10:15 PM 37.4 °F 34.9 °F 16.0 °F 42% 30.25 in 10.0 mi South 3.5 mph - N/A   Clear
10:35 PM 39.4 °F 34.5 °F 16.7 °F 40% 30.25 in 10.0 mi SSW 6.9 mph - N/A   Clear
10:55 PM 36.1 °F 31.4 °F 15.4 °F 43% 30.25 in 10.0 mi SSW 5.8 mph - N/A   Clear
11:15 PM 39.6 °F - 16.7 °F 40% 30.25 in 10.0 mi Calm Calm - N/A   Clear
11:35 PM 35.6 °F 31.7 °F 17.1 °F 47% 30.25 in 10.0 mi South 4.6 mph - N/A   Clear
11:55 PM 36.9 °F 33.1 °F 17.4 °F 45% 30.25 in 10.0 mi SSW 4.6 mph - N/A   Clear